Regional Weather Roundup
Issued by NWS Albany, NY

Home | Current Version | Previous Version | Graphics & Text | Print | Product List | Glossary Off
Versions: 1 2 3 4 5 6 7 8 9 10 11 12 13 14 15 16 17 18 19 20 21 22 23 24 25 26 27 28 29 30 31 32 33 34 35 36 37 38 39 40 41 42 43 44 45 46 47 48 49 50

236
ASUS41 KALY 231110
RWRALY

NEW YORK STATE HOURLY WEATHER ROUNDUP
NATIONAL WEATHER SERVICE ALBANY NY
700 AM EDT MON APR 23 2018

NOTE: "FAIR" INDICATES FEW OR NO CLOUDS BELOW 12,000 FEET WITH NO
SIGNIFICANT WEATHER AND/OR NO OBSTRUCTIONS TO VISIBILITY.

NYZ032-033-038>043-046>054-057>066-NYZ062>081-082-084-231200-
EAST


CITY           SKY/WX    TMP DP  RH WIND       PRES   REMARKS
ALBANY         FAIR      31  24  75 E3        30.49R
GLENS FALLS    FAIR      28  25  88 NW3       30.49R
POUGHKEEPSIE   FAIR      31  26  82 CALM      30.48R
NEWBURGH       CLEAR     36  27  69 CALM      30.48R
MONTGOMERY     FAIR      31  27  85 CALM      30.47R
WHITE PLAINS   FAIR      46  19  34 NE7       30.45R
ISLIP          FAIR      38  34  85 CALM      30.46R
NEW YORK CITY  FAIR      46  37  71 NE8       30.45R
CENTRAL PARK   FAIR      48  31  51 NE10      30.47R
$$

NYZ005>009-017-018-044>046-055-056-231200-
CENTRAL


CITY           SKY/WX    TMP DP  RH WIND       PRES   REMARKS
FULTON         FAIR      35  25  66 CALM      30.45R
SYRACUSE       FAIR      29  26  89 NE5       30.45S WCI  24
ROME           FAIR      29  22  75 SE5       30.48R WCI  24
ELMIRA         FAIR      27  22  81 CALM      30.45R
BINGHAMTON     FAIR      32  19  58 CALM      30.42R
MONTICELLO       N/A     31  23  72 MISG        N/A
$$

NYZ026>034-041>043-087-231200-
NORTH


CITY           SKY/WX    TMP DP  RH WIND       PRES   REMARKS
WATERTOWN        N/A     28  25  88 E5        30.45R WCI  23
FORT DRUM      NOT AVBL
OGDENSBURG     FAIR      32  31  95 CALM      30.47R
MASSENA        FAIR      28  26  92 CALM      30.48R
SARANAC LAKE   FAIR      19  18  95 CALM      30.44R
PLATTSBURGH    FAIR      29  24  82 CALM      30.48R
$$

NYZ001>004-010>016-019>021-085-231200-
WEST


CITY           SKY/WX    TMP DP  RH WIND       PRES   REMARKS
NIAGARA FALLS  FAIR      36  22  56 E5        30.38R WCI  32
BUFFALO        FAIR      43  21  41 SE7       30.39R
DUNKIRK        FAIR      49  21  33 SE17      30.34S
JAMESTOWN      FAIR      44  19  36 SE7       30.36R
WELLSVILLE     FAIR      40  17  39 SE5       30.40R
ROCHESTER      FAIR      33  29  85 SW3       30.42R
PENN YAN       FAIR      32  25  75 SW6       30.43R WCI  26
$$

             KEY
       WCI = WIND CHILL INDEX
       VSB = VISIBILITY
       HX  = HEAT INDEX
$$




USA.gov is the U.S. government's official web portal to all federal, state and local government web resources and services.